カタログに戻る

KUIPER-00440

運用中通信LEO
NORAD 68942·PAYLOAD·🇺🇸 United States

打ち上げ Apr 30, 2026 から Guiana Space Centre

Loading…

次のパス (今後24時間)

TLE

最新Source: CelesTrak SupGP

元期: Sep 14, 2026, 18:05 UTC

1 68942C 26098Z   26257.75381944  .00007445  00000+0  97466-3 0  2578
2 68942  51.9037  12.1100 0000317   5.6597  53.9048 14.79919870    19

AllMySatでKUIPER-00440をリアルタイム追跡

Download on the App Store